Погода в Тамбовке

Россия / Амурская область     50°05′56″N   128°03′39″E
темп.,
°C
ветер,
м/с
пор.,
м/с
влажн.,
%
обл.,
%
осадки,
мм/ч
давл.,
гПа
погр.,
м
9 декабря, чт
чт900:00−10ю511925 0.0 1024159
03:00−10ю5119416 0.0 1022165
06:00−10ююв511935 0.0 1021171
09:00−9ю513925 0.0 1020229
12:00−4ю61288100 0.0 1019404
15:00−3ююз5986100 0.0 1018316
18:00−3ююз5988100 0.1 1019232
21:00−3юз3797100 1.1 1020316
10 декабря, пт
пт1000:00−4зсз3697100 2.1 1021292
03:00−7ссз4987100 2.4 1023291
06:00−10ссз41092100 0.0 1024294
09:00−11ссз4992100 0.0 1026214
12:00−10ссз4889100 0.0 1027276
15:00−12ссз2293100 0.0 102718
18:00−18с22975 0.0 102910
21:00−21ссз11100100 0.0 10309
11 декабря, сб
сб1100:00−15ссз1194100 0.0 10299
03:00−18ююз1196100 0.0 10299
06:00−18ююв2297100 0.0 102713
09:00−15ююв2393100 0.0 102758
12:00−11ю3487100 0.0 1024128
15:00−9ююв2492100 0.0 1022113
18:00−9ююз2597100 0.3 102099
21:00−9зюз3796100 0.6 1019199
12 декабря, вс
вс1200:00−11з3595100 0.1 1018111
03:00−12сз5995100 0.4 1017387
06:00−14сз51092100 0.2 1017345
09:00−19зсз399664 0.2 1018127
12:00−13сз5991100 0.1 1017688
15:00−13сз5989100 0.2 1017832
18:00−14сз5119198 0.1 1018563
21:00−15сз5128895 0.1 1019466
13 декабря, пн
пн1300:00−19зсз4109160 0.0 1019153
03:00−22зсз38905 0.0 102092
06:00−25з229037 0.0 101922
09:00−24юз2288100 0.0 101918
12:00−15ююз3579100 0.0 1017163
15:00−13ю3683100 0.0 1015304
18:00−14ю3795100 0.0 1015167
21:00−16ююз359670 0.1 101687